Terminal Aerodrome Forecast
Issued by NWS

Home | Current Version | Previous Version | Text Only | Print | Product List | Glossary On
Versions: 1 2 3 4 5 6 7 8 9 10 11 12 13
000
FTUS41 KBTV 200500
TAFRUT
TAF
KRUT 200521Z 2006/2106 13006KT P6SM SKC
     FM201400 21007KT P6SM SKC
     FM210000 13012KT P6SM SCT200
      AMD LTD TO CLD VIS AND WIND=

USA.gov is the U.S. government's official web portal to all federal, state and local government web resources and services.